Home > Weather > Saint George's > Past weeks

Flag for Grenada Past Weather in Saint George's, Grenada — Yesterday and Last 2 Weeks

Now
81 °F

Passing clouds.


Feels Like: 87 °F
Forecast: 76 / 82 °F
Wind: 20 mph from Southeast

Location: Point Salines Airport

Current Time: Jul 2, 2016 at 12:07:55 AM

Latest Report: Jul 1, 2016 at 10:00 PM


Visibility: N/A

Pressure: 29.98 "Hg

Humidity: 89%

Dew Point: 77 °F

Location of Saint George'sLocation

Past Weather in Saint George's — Graph

°F

Saint George's Temperature Yesterday

Maximum temperature yesterday: 88 °F (at 4:00 PM)
Minimum temperature yesterday: 79 °F (at 12:00 AM)
Average temperature yesterday: 82 °F

High & Low Weather Summary for the Past Weeks

 TemperatureHumidityPressure
High88 °F (Jun 22, 11:00 AM)100% (Jun 19, 1:00 PM)30.04 "Hg (Jun 19, 1:00 PM)
Low75 °F (Jun 28, 11:00 AM)66% (Jun 22, 11:00 AM)29.89 "Hg (Jun 19, 4:00 PM)
Average82 °F83%29.97 "Hg
* Reported Jun 16 10:00 PM — Jul 1 10:00 PM, Saint George's, Weather by CustomWeather, © 2016

Note: Actual official high and low records may vary slightly from our data, if they occured in-between our weather recording intervals... More about our weather records

Advertising

Saint George's Weather History for the Previous 24 Hours

Scroll right to see more
 ConditionsComfort  
Time TempWeatherWind HumidityBarometerVisibility
10:00 PM
Fri, Jul 1
81 °FPassing clouds.20 mph89%29.98 "HgN/A
9:00 PM79 °FPartly cloudy.8 mph94%29.98 "HgN/A
8:00 PM79 °FPassing clouds.No wind94%29.95 "HgN/A
7:00 PM79 °FPassing clouds.No wind94%29.95 "HgN/A
6:00 PM79 °FBroken clouds.No wind94%29.95 "HgN/A
5:00 PM79 °FThunderstorms. Broken clouds.8 mph94%29.95 "HgN/A
4:00 PM88 °FBroken clouds.12 mph79%29.92 "HgN/A
3:00 PM86 °FPassing clouds.16 mph79%29.92 "HgN/A
2:00 PM84 °FScattered clouds.15 mph84%29.95 "HgN/A
1:00 PM86 °FScattered clouds.14 mph79%29.98 "HgN/A
12:00 PM86 °FScattered clouds.14 mph79%29.98 "HgN/A
11:00 AM86 °FScattered clouds.14 mph79%30.01 "HgN/A
10:00 AM86 °FScattered clouds.15 mph79%30.01 "HgN/A
9:00 AM84 °FPassing clouds.14 mph84%30.01 "HgN/A
8:00 AM84 °FPassing clouds.14 mph79%30.01 "HgN/A
7:00 AM82 °FPassing clouds.12 mph84%29.98 "HgN/A
6:00 AM79 °FPassing clouds.12 mph89%29.98 "HgN/A
5:00 AM81 °FPassing clouds.8 mph89%29.95 "HgN/A
4:00 AM79 °FPassing clouds.7 mph89%29.95 "HgN/A
3:00 AM79 °FPassing clouds.6 mph89%29.95 "HgN/A
2:00 AM79 °FPassing clouds.8 mph89%29.95 "HgN/A
1:00 AM79 °FPassing clouds.6 mph89%29.98 "HgN/A
12:00 AM79 °FPassing clouds.6 mph89%29.98 "HgN/A
Weather by CustomWeather, © 2016

See weather overviewHow to use our weather pages